This demonstration page uses our WeatherBlox Daily Observations layout. Learn more.

Left ArrowRight Arrow

39.51506, -84.39828

Hourly Observations for June 11, 2016

Temp ( °F °C ) Dew Point ( °F °C ) Humidity (%) Winds ( mph kmh ) Pressure ( in mb ) Visibility ( mi km ) Precip ( " mm )
12:15 am 00:15 Hazy 69 20.8 64 18 84 84 N N/A 30.03 1017 5 8 N/A
12:35 am 00:35 Mostly Cloudy with Haze 69 20.8 64 17.9 84 84 N N/A 30.03 1017 2 3 N/A
12:55 am 00:55 Mostly Cloudy with Haze 69 20.8 64 18 84 84 N N/A 30.03 1017 2 3 N/A
1:15 am 01:15 Hazy 69 20.8 64 18 84 84 N N/A 30.03 1017 5 8 N/A
1:35 am 01:35 Clear 69 20.8 64 18 84 84 N N/A 30.06 1018 7 11 N/A
1:55 am 01:55 Hazy 69 20.8 65 18.1 85 85 SW 3 6 30.03 1017 5 8 N/A
2:15 am 02:15 Clear 69 20.8 65 18.1 85 85 SSW 3 6 30.03 1017 10 16 N/A
2:35 am 02:35 Clear 69 20.8 64 18 84 84 N N/A 30.03 1017 10 16 N/A
2:55 am 02:55 Clear 69 20.8 64 17.5 82 82 N N/A 30.03 1017 10 16 N/A
3:15 am 03:15 Clear 69 20.8 63 17 79 79 N N/A 30.03 1017 10 16 N/A
3:35 am 03:35 Clear 69 20.8 62 16.6 77 77 N N/A 30.03 1017 10 16 N/A
3:55 am 03:55 Clear 69 20.8 63 17 79 79 N N/A 30.03 1017 10 16 N/A
4:15 am 04:15 Clear 64 18 58 14.7 81 81 N N/A 30.00 1016 10 16 N/A
4:35 am 04:35 Hazy 68 20.1 63 17 82 82 N N/A 30.00 1016 5 8 N/A
4:55 am 04:55 Mostly Cloudy with Haze 65 18.1 59 15.1 83 83 N N/A 30.03 1017 1 2 N/A
5:15 am 05:15 Clear 64 18 59 15.1 83 83 N N/A 30.03 1017 7 11 N/A
5:35 am 05:35 Clear 63 17.2 58 14.3 83 83 N N/A 30.03 1017 10 16 N/A
5:55 am 05:55 Mostly Cloudy with Haze 63 17 57 14.1 83 83 N N/A 30.03 1017 2 3 N/A
6:15 am 06:15 Hazy 62 16.8 57 14 84 84 S 6 9 30.00 1016 4 6 N/A
6:35 am 06:35 Sunny 64 18 59 15.2 84 84 N N/A 30.03 1017 10 16 N/A
6:55 am 06:55 Sunny 67 19.5 62 16.5 83 83 S 3 6 30.03 1017 10 16 N/A
7:15 am 07:15 Sunny 68 20.1 63 17 82 82 N N/A 30.03 1017 10 16 N/A
7:35 am 07:35 Sunny 69 20.8 63 17.2 80 80 N N/A 30.03 1017 10 16 N/A
7:55 am 07:55 Sunny 72 22 64 17.5 76 76 S 3 6 30.03 1017 10 16 N/A
8:35 am 08:35 Sunny 74 23.6 64 17.5 69 69 S 6 9 30.03 1017 10 16 N/A
8:55 am 08:55 Sunny 77 25.1 64 18 65 65 SSW 8 13 30.03 1017 10 16 N/A
9:15 am 09:15 Sunny 77 25.1 63 17.4 62 62 S 8 13 30.03 1017 10 16 N/A
9:35 am 09:35 Sunny 80 26.5 65 18.2 60 60 SSW 6 9 30.03 1017 10 16 N/A
9:55 am 09:55 Sunny 80 26.5 64 17.5 58 58 SSW 8 13 30.03 1017 10 16 N/A
10:15 am 10:15 Sunny 81 27.3 64 17.5 55 55 SSW 6 9 30.03 1017 10 16 N/A
10:35 am 10:35 Sunny 83 28.1 64 17.9 54 54 SSW 6 9 30.03 1017 10 16 N/A
10:55 am 10:55 Sunny 84 29.1 62 16.7 47 47 SW 9 15 30.00 1016 10 16 N/A
11:15 am 11:15 Sunny 87 30.7 63 17.1 44 44 WSW 12 19 30.00 1016 10 16 N/A
11:35 am 11:35 Sunny 89 31.8 64 17.7 43 43 WSW 13 20 30.00 1016 10 16 N/A
11:55 am 11:55 Sunny 90 32.1 64 17.9 43 43 SW 10 17 30.00 1016 10 16 N/A
12:15 pm 12:15 Sunny 90 32.1 65 18.2 44 44 SSW 9 15 30.00 1016 10 16 N/A
12:35 pm 12:35 Sunny 90 32.1 65 18.4 44 44 W 14 22 30.00 1016 10 16 N/A
12:55 pm 12:55 Sunny 90 32.1 64 17.6 42 42 WSW 12 19 30.00 1016 10 16 N/A
1:15 pm 13:15 Sunny 90 32.1 63 17.3 41 41 WSW 9 15 30.00 1016 10 16 N/A
1:35 pm 13:35 Sunny 90 32.1 63 17.4 41 41 WSW 9 15 30.00 1016 10 16 N/A
1:55 pm 13:55 Sunny 90 32.1 62 16.8 40 40 SW 15 24 30.00 1016 10 16 N/A
2:15 pm 14:15 Sunny 90 32.1 62 16.8 40 40 WSW 13 20 29.97 1015 10 16 N/A
2:35 pm 14:35 Sunny 90 32.1 60 15.4 36 36 SW 14 22 29.97 1015 10 16 N/A
2:55 pm 14:55 Sunny 90 32.1 60 15.6 37 37 SW 14 22 29.97 1015 10 16 N/A
3:15 pm 15:15 Sunny 90 32.1 61 15.9 38 38 WSW 9 15 29.97 1015 10 16 N/A
3:35 pm 15:35 Sunny 90 32.1 60 15.6 37 37 SW 12 19 29.97 1015 10 16 N/A
3:55 pm 15:55 Sunny 90 32.2 60 15.7 37 37 SW 15 24 29.97 1015 10 16 N/A
4:15 pm 16:15 Sunny 91 32.8 61 16 36 36 WSW 9 15 29.97 1015 10 16 N/A
4:35 pm 16:35 Sunny 91 32.9 60 15.7 35 35 SW 13 20 29.97 1015 10 16 N/A
4:55 pm 16:55 Sunny 92 33.5 60 15.7 34 34 WSW 13 20 29.97 1015 10 16 N/A
5:15 pm 17:15 Sunny 91 32.9 60 15.6 35 35 SW 12 19 29.97 1015 10 16 N/A
5:35 pm 17:35 Sunny 91 32.8 59 15 34 34 SSW 14 22 29.94 1014 10 16 N/A
5:55 pm 17:55 Sunny 91 32.6 58 14.7 34 34 SW 13 20 29.94 1014 10 16 N/A
6:15 pm 18:15 Sunny 90 32.1 57 14.1 34 34 SW 10 17 29.94 1014 10 16 N/A
6:35 pm 18:35 Sunny 90 32.1 58 14.6 35 35 SW 8 13 29.94 1014 10 16 N/A
6:55 pm 18:55 Sunny 90 32.1 58 14.3 34 34 SSW 10 17 29.94 1014 10 16 N/A
7:15 pm 19:15 Sunny 90 32.1 60 15.6 37 37 SW 9 15 29.94 1014 10 16 N/A
7:35 pm 19:35 Sunny 90 32.1 61 16 38 38 SW 7 11 29.94 1014 10 16 N/A
7:55 pm 19:55 Sunny 87 30.7 61 16.2 42 42 SW 5 7 29.94 1014 10 16 N/A
8:15 pm 20:15 Partly Cloudy 83 28.4 61 15.9 47 47 SW 5 7 29.94 1014 10 16 N/A
8:35 pm 20:35 Partly Cloudy 82 28 62 16.4 49 49 SW 6 9 29.94 1014 10 16 N/A
8:55 pm 20:55 Partly Cloudy 80 26.5 62 16.9 56 56 SW 3 6 29.97 1015 10 16 N/A
9:15 pm 21:15 Partly Cloudy 80 26.5 64 17.8 59 59 SW 5 7 29.97 1015 10 16 N/A
9:35 pm 21:35 Clear 77 25.1 64 17.5 63 63 SW 5 7 29.97 1015 10 16 N/A
9:55 pm 21:55 Clear 77 25.1 63 17.4 62 62 SW 6 9 29.97 1015 10 16 N/A
10:15 pm 22:15 Clear 77 25.1 63 17.4 62 62 SW 3 6 29.97 1015 10 16 N/A
10:35 pm 22:35 Clear 77 25.1 64 17.6 63 63 SW 5 7 30.00 1016 10 16 N/A
10:55 pm 22:55 Clear 77 25 63 17.1 62 62 SW 5 7 30.00 1016 10 16 N/A
11:15 pm 23:15 Clear 77 25 62 16.8 60 60 SSW 7 11 30.00 1016 10 16 N/A
11:35 pm 23:35 Clear 76 24.2 61 16.2 61 61 SW 6 9 30.00 1016 10 16 N/A
11:55 pm 23:55 Clear 74 23.6 60 15.8 62 62 SSW 7 11 30.00 1016 10 16 N/A

Powered by AerisWeather